OpenBCM V1.08-5-g2f4a (Linux)

Packet Radio Mailbox

IZ3LSV

[San Dona' di P. JN]

 Login: GUEST





  
I6KZR  > KEPLER   09.10.12 11:25l 234 Lines 10741 Bytes #999 (0) @ EU
BID : 1667_I6KZR
Read: GUEST
Subj: 2L Keplerian Elements #356
Path: IZ3LSV<IK8VKW<F1OYP<VK4TUB<VK4WIT<EA5RQ<EA5VDR<ED3ZAF<ED3ZAG<EA3RKU<
      EA3PB<7M3TJZ<RV3DHC<HA3PG<SV1AAW<IK6PYS<I6DH
Sent: 1001221/2206Z @:I6DH.IMAR.ITA.EU #:5809 [Ascoli P.] FBB5.15c $:1667_I6KZR
From: I6KZR@I6DH.IMAR.ITA.EU
To  : KEPLER@EU

R.001221/2238z @:I6KZR.I6DH.#IMAR.ITA.EU $:1667_I6KZR Sally 3.1.064 

Messaggio inviato da: I6KZR@I6DH.IMAR.ITA.EU

AO-10
1 14129  83058B   00355.03296873  .00000050  00000 1  10000-3 0  7270
2 14129  26.6859 295.6920 6002376 110.7094 321.0331  2.05865208103782
AO-40
1 26609  00072B   00354.78150683 -.00000292  00000 1  00000 1 0   166
2 26609   6.2479 237.0656 8128421 195.4843  97.8405  1.26866570   613
FO-20
1 20480  90013C   00355.86959518  .00000005  00000 1  87952-4 0  2770
2 20480  99.0749  91.5094 0541213 352.8465   6.5126 12.83284554509221
FO-29
1 24278  96046B   00355.73011057  .00000014  00000 1  47831-4 0  4217
2 24278  98.5692 238.9168 0352030 104.1176 259.9342 13.52751936214513
MIR
1 16609  86017A   00356.48023942  .00101861  00000 1  42600-3 0  3402
2 16609  51.6468  16.9307 0015462 140.0269 220.2572 15.84665395848642
RS-12/13
1 21089  91007A   00355.69034230  .00000089  00000 1  78558-4 0  3018
2 21089  82.9233  47.4247 0029011 329.1853  30.7599 13.74240041495299
RS-15
1 23439  94085A   00355.75377030 -.00000039  00000 1  10617-3 0  5168
2 23439  64.8173 238.7573 0167381 257.3112 100.9053 11.27539112246545
UO-14
1 20437  90005B   00355.69910166  .00000289  00000 1  12663-3 0  5852
2 20437  98.3869  56.2846 0011737  26.6071 333.5711 14.30600844569534
UO-15
1 20438  90005C   00355.67147283  .00000157  00000 1  77241-4 0  3657
2 20438  98.3582  49.1512 0011206  35.4409 324.7516 14.29703977569277
AO-16
1 20439  90005D   00355.73880671  .00000304  00000 1  13246-3 0  3805
2 20439  98.4279  63.6160 0012139  28.9563 331.2294 14.30701553569564
DO-17
1 20440  90005E   00356.28058670  .00000353  00000 1  15034-3 0  3737
2 20440  98.4399  66.4224 0011998  26.7663 333.4138 14.30904201569690
WO-18
1 20441  90005F   00356.18802006  .00000324  00000 1  13985-3 0  3873
2 20441  98.4381  65.9534 0012246  29.8671 330.3211 14.30797273569675
LO-19
1 20442  90005G   00355.76152385  .00000367  00000 1  15561-3 0  3818
2 20442  98.4469  67.3242 0012865  27.8842 332.3029 14.30939851569657
AO-21
1 21087  91006A   00356.00400679  .00000088  00000 1  76761-4 0  2398
2 21087  82.9406 182.0433 0034401 293.9553  65.8001 13.74747564496397
UO-22
1 21575  91050B   00356.20595701  .00000420  00000 1  15233-3 0   914
2 21575  98.1366  13.9514 0007902   3.8825 356.2423 14.37959666494796
KO-23
1 22077  92052B   00355.91042934 -.00000037  00000 1  10000-3 0    32
2 22077  66.0865 339.3634 0015832 275.6359  84.2854 12.86356675392732
KO-25
1 22828  93061F   00356.20510253  .00000318  00000 1  14246-3 0  8400
2 22828  98.3797  46.9567 0011067  52.8296 307.3895 14.28882912345373
IO-26
1 22826  93061D   00356.15154824  .00000316  00000 1  14290-3 0  8586
2 22826  98.3839  46.7107 0009833  70.1347 290.0889 14.28466510377192
AO-27
1 22825  93061C   00356.29511818  .00000217  00000 1  10348-3 0  8669
2 22825  98.3809  46.1342 0009513  71.1015 289.1197 14.28305935377184
MO-30
1 24305  96052B   00354.86417993  .00000204  00000 1  20364-3 0  4758
2 24305  82.9352 127.3768 0028941 243.6962 116.1217 13.73263596214950
TO-31
1 25396  98043C   00356.24283672 -.00000044  00000 1  00000 1 0  4294
2 25396  98.7055  69.6851 0001859 261.7769  98.3200 14.22857867127256
GO-32
1 25397  98043D   00355.93318352  .00000145  00000 1  84445-4 0  3822
2 25397  98.7023  69.0470 0000619 227.7192 132.3934 14.22516809127215
SO-33
1 25509  98061B   00355.83394601  .00000926  00000 1  17756-3 0  2003
2 25509  31.4474 285.5101 0363662 258.1301  97.8335 14.25298546112470
PO-34
1 25520  98064B   00356.19862206  .00003687  00000 1  22723-3 0  2580
2 25520  28.4619  54.2589 0007024 116.6456 243.4949 15.07203828118114
SO-35
1 25636  99008C   00356.30570266  .00000723  00000 1  20263-3 0  2813
2 25636  96.4508 155.0303 0151034 310.3310  48.4786 14.41615958 96048
WO-39
1 26061  00004A   00354.86763618  .00000987  00000 1  36298-3 0  1375
2 26061 100.1923 250.5971 0036694 349.3662  10.6737 14.35178812 47008
ISS
1 25544  98067A   00356.22560819  .00035828  00000 1  35042-3 0  4085
2 25544  51.5768 269.6773 0007465 252.0191 204.8902 15.65754528119235
POSAT
1 22829  93061G   00356.15351165  .00000320  00000 1  14301-3 0  8607
2 22829  98.3776  47.1902 0011013  55.8388 304.3857 14.28924172377288
JAWSAT
1 26065  00004E   00354.56108656  .00000393  00000 1  15925-3 0  1073
2 26065 100.1937 250.0174 0038002 352.7068   7.3554 14.34429981 46936
OPAL
1 26062  00004B   00354.74082842  .00254753  00000 1  31969-1 0  4032
2 26062 100.2264 261.1051 0023788 351.8068   8.2803 14.80448475 47500
OCS
1 26063  00004C   00354.75221524  .00000361  00000 1  14781-3 0  1100
2 26063 100.1944 250.2280 0037314 350.8802   9.1697 14.34492745 46972
UNK3
1 26093  00004L   00354.71512587  .00003638  00000 1  12598-2 0  1542
2 26093 100.1847 250.4856 0037385 351.2165   8.8438 14.36071326 44813
UNK4
1 26094  00004M   00355.15341185  .00001277  00000 1  46307-3 0  1022
2 26094 100.1892 250.7433 0037260 350.8318   9.2180 14.35223170 44347
SAUDISAT 1A
1 26548  00057D   00354.98797794  .00002304  00000 1  35318-3 0   442
2 26548  64.5598 293.1538 0010580  13.8766 346.2676 14.75957167 12470
UNISAT
1 26547  00057C   00354.87654471  .00003322  00000 1  53209-3 0   465
2 26547  64.5616 294.6247 0018137  67.3369 292.9679 14.73219710 12453
SAUDISAT 1B
1 26549  00057E   00355.30881718  .00001857  00000 1  30257-3 0   405
2 26549  64.5518 292.9917 0014765  59.2183 301.0372 14.73852936 12510
TIUNGSAT-1
1 26545  00057A   00348.81497596  .00001502  00000 1  24385-3 0   464
2 26545  64.5622 312.4596 0011305  43.0051 317.1930 14.74735616 11552
MEGSAT-1
1 26546  00057B   00300.90113007  .00002017  00000 1  31077-3 0   441
2 26546  64.5565  98.4503 0004641  22.5030 337.6284 14.76095605  4507
DNEPR-1 R/B
1 26550  00057F   00300.95678734  .00000721  00000 1  29452-3 0   482
2 26550  64.5580 111.6189 0521266 122.5374 242.7151 13.78368992  4216
DNEPR-1 DEB
1 26551  00057G   00300.94213223  .00009253  00000 1  13064-2 0   626
2 26551  64.5561  98.1324 0007997 337.0117  23.0632 14.77613920  4504
NOAA 9
1 15427  84123A   00335.85266196  .00000850  00000 1  46608-3 0  6886
2 15427  98.7679  46.3051 0015257  13.2476 346.9094 14.14402976823656
NOAA 10
1 16969  86073A   00349.92964479  .00000398  00000 1  18495-3 0  6808
2 16969  98.6584 333.1709 0011692 245.8471 114.1486 14.26058319740464
NOAA 11
1 19531  88089A   00349.90722737  .00000252  00000 1  15723-3 0  5227
2 19531  98.9842  54.9888 0011426 300.4397  59.5633 14.13797751630345
NOAA 12
1 21263  91032A   00355.89335317  .00000383  00000 1  18609-3 0  9756
2 21263  98.5604 346.6738 0012741 157.4409 202.7338 14.23792485498797
NOAA 13
1 22739  93050A   00336.04119143  .00000600  00000 1  35676-3 0  3502
2 22739  99.2092 342.0743 0009825 347.7826  12.3104 14.11474530376636
NOAA 14
1 23455  94089A   00355.90608030  .00000307  00000 1  19147-3 0  5641
2 23455  99.1623 338.1811 0008919 291.1100  68.9118 14.12533808307960
NOAA 15
1 25338  98030A   00355.74197956  .00000245  00000 1  12686-3 0   181
2 25338  98.6193  20.8702 0011618  93.1546 267.0961 14.23432651135408
NOAA 16
1 26536  00055A   00354.47458394  .00000279  00000 1  17924-3 0  1152
2 26536  98.8052 297.4165 0011360  26.6749 333.5519 14.10998417 12551
METEOR 2-16
1 18312  87068A   00334.93219369  .00000178  00000 1  14596-3 0  8720
2 18312  82.5550 141.6566 0012451 340.6184  19.4499 13.84264960671216
METEOR 2-17
1 18820  88005A   00335.67547758  .00000319  00000 1  26956-3 0  3819
2 18820  82.5441 192.3102 0017594  37.6240 322.6155 13.84923695648777
METEOR 2-18
1 19851  89018A   00334.76555093  .00000244  00000 1  20212-3 0  8696
2 19851  82.5208  63.4240 0014128  85.1652 275.1123 13.85109600593947
METEOR 2-19
1 20670  90057A   00335.50783610  .00000201  00000 1  16698-3 0  4123
2 20670  82.5447 135.3148 0017181   9.9112 350.2378 13.84261689526865
METEOR 2-20
1 20826  90086A   00335.57382544  .00000195  00000 1  16303-3 0  3861
2 20826  82.5268  69.2111 0012490 279.1415  80.8332 13.83806152513893
METEOR 2-21
1 22782  93055A   00355.24172424  .00000148  00000 1  12067-3 0  8702
2 22782  82.5480 121.6561 0023060  42.9888 317.3069 13.83302816368812
METEOR 3-2
1 19336  88064A   00334.84347162  .00000051  00000 1  10000-3 0  8868
2 19336  82.5398  95.3390 0017432 127.2979 232.9742 13.17027082593593
METEOR 3-3
1 20305  89086A   00335.34309882  .00000044  00000 1  10000-3 0  6820
2 20305  82.5453  79.5627 0005908 300.7923  59.2417 13.04463442530345
METEOR 3-4
1 21232  91030A   00334.92221318  .00000051  00000 1  10000-3 0  2860
2 21232  82.5380 302.6726 0014329  65.5728 294.6866 13.16515678461584
METEOR 3-6
1 22969  94003A   00334.95469042  .00000051  00000 1  10000-3 0  6967
2 22969  82.5640 192.6755 0015143 129.9934 230.2522 13.16806964329140
METEOSAT 4
1 19876  89020B   00326.20341360 -.00000095  00000 1  10000-3 0  5131
2 19876   5.2307  66.5398 0017831 302.6541  56.9944  0.97109501 22337
METEOSAT 5
1 21140  91015B   00355.71995971  .00000020  00000 1  10000-3 0  9205
2 21140   3.9100  74.4883 0001407 243.5563  93.5227  1.00275545 38128
METEOSAT 6
1 22912  93073B   00355.20695537 -.00000076  00000 1  00000 1 0  5460
2 22912   0.8565  77.5003 0003432 225.1702 211.8690  1.00270939 24379
METEOSAT 7
1 24932  97049B   00354.50021934 -.00000006  00000 1  00000 1 0  7394
2 24932   0.3198 308.0377 0001097 343.9137 336.4983  1.00273601 12085
UO-11
1 14781  84021B   00356.37758863  .00002212  00000 1  35051-3 0  3726
2 14781  98.0095 316.4833 0009626 219.7579 140.2927 14.73171613899853
UOSAT-12
1 25693  99021A   00356.23170429 -.00000033  00000 1  16347-4 0  3972
2 25693  64.5608 260.0920 0050486 270.4704  89.0613 14.73545356 89863
RS-10/11
1 18129  87054A   00355.55560787  .00000077  00000 1  68250-4 0  9125
2 18129  82.9253  10.7535 0010175 263.0521  96.9477 13.72537204676135
FENGYUN 1C
1 25730  99025A   00354.96573818 -.00000029  00000 1  74848-5 0  1597
2 25730  98.7181  30.8841 0015107  89.7161 270.5740 14.10345802 83153
HUBBLE
1 20580  90037B   00348.86440106  .00002526  00000 1  22616-3 0  4303
2 20580  28.4684 154.4470 0012482 166.5401 193.5523 14.92374623383265
RESURS
1 25394  98043A   00356.17875174  .00000178  00000 1  98423-4 0  9223
2 25394  98.7068  69.8615 0001059 195.0549 165.0596 14.22980912127231
UARS
1 21701  91063B   00348.93634354  .00000834  00000 1  88146-4 0  2104
2 21701  56.9847   7.5227 0004494  93.4853 266.6704 14.99144289506090

Frase del giorno:
* Windows '95 sara' migliorata quando Windows 3.1 finira' di caricarsi.

Buon Natale e Felice Anno Nuovo
73 Ciao a tutti Renzo.


li, gioved¨ 21 dicembre 2000  22.37 UTC

  /___/____/
 /    /   /
     ||
     ||I6KZR  Fermo, Italy
     ||BBS    I6KZR@I6DH.IMAR.ITA.EU
     ||e_mail i6kzr@arrl.net


Message sent with Sally V3.1. Windows packet software.


Read previous mail | Read next mail


 09.05.2025 06:23:46lGo back Go up